This is the latest recevied weather packets stored in our database for station/object N6RDS. If no packets are shown the sender has not sent any weather packets the latest 1 day(s).
| Time | Temp. | Humidity | Pressure | Rain* | Wind** | Luminosity | Snow |
|---|---|---|---|---|---|---|---|
| 1778015619 | 4.44° C | 72% | 1020.2 hPa | 0 mm | 0 m/s | 17 W/m² | - |
| 1778015316 | 5° C | 69% | 1020 hPa | 0 mm | 0 m/s | 16 W/m² | - |
| 1778015013 | 5.56° C | 65% | 1019.9 hPa | 0 mm | 0 m/s | 16 W/m² | - |
| 1778014709 | 5.56° C | 61% | 1019.7 hPa | 0 mm | 0.89 m/s, 298° | 17 W/m² | - |
| 1778014408 | 5.56° C | 61% | 1019.9 hPa | 0 mm | 0 m/s | 21 W/m² | - |
| 1778014104 | 6.11° C | 59% | 1019.6 hPa | 0 mm | 0.89 m/s, 224° | 19 W/m² | - |
| 1778013802 | 6.11° C | 58% | 1019.9 hPa | 0 mm | 0.45 m/s, 306° | 18 W/m² | - |
| 1778013499 | 6.67° C | 58% | 1019.7 hPa | 0 mm | 0.89 m/s, 357° | 17 W/m² | - |
| 1778013196 | 7.22° C | 58% | 1019.4 hPa | 0 mm | 0.45 m/s, 271° | 19 W/m² | - |
| 1778012892 | 7.78° C | 56% | 1019.4 hPa | 0 mm | 1.34 m/s, 98° | 22 W/m² | - |
| 1778012588 | 8.89° C | 54% | 1019.4 hPa | 0 mm | 1.79 m/s, 32° | 28 W/m² | - |
| 1778012285 | 9.44° C | 56% | 1019.2 hPa | 0 mm | 0.45 m/s, 151° | 33 W/m² | - |
| 1778011982 | 10° C | 52% | 1018.9 hPa | 0 mm | 0 m/s | 45 W/m² | - |
| 1778011681 | 10° C | 52% | 1019.2 hPa | 0 mm | 0 m/s | 44 W/m² | - |
| 1778011377 | 10° C | 51% | 1019 hPa | 0 mm | 0 m/s | 53 W/m² | - |
| 1778011072 | 10° C | 51% | 1018.9 hPa | 0 mm | 1.79 m/s, 212° | 74 W/m² | - |
| 1778010771 | 10° C | 50% | 1018.8 hPa | 0 mm | 1.79 m/s, 206° | 84 W/m² | - |
| 1778010467 | 10.56° C | 48% | 1019 hPa | 0 mm | 1.79 m/s, 202° | 103 W/m² | - |
| 1778010164 | 10.56° C | 47% | 1018.8 hPa | 0 mm | 0.45 m/s, 143° | 118 W/m² | - |
| 1778009859 | 11.11° C | 48% | 1018.9 hPa | 0 mm | 2.24 m/s, 156° | 117 W/m² | - |
| 1778009557 | 11.67° C | 47% | 1018.9 hPa | 0 mm | 3.13 m/s, 199° | 138 W/m² | - |
| 1778009256 | 11.11° C | 48% | 1019 hPa | 0 mm | 1.34 m/s, 225° | 186 W/m² | - |
| 1778008953 | 11.11° C | 48% | 1019 hPa | 0 mm | 1.79 m/s, 211° | 203 W/m² | - |
| 1778008651 | 12.22° C | 47% | 1019.1 hPa | 0 mm | 0.45 m/s, 224° | 227 W/m² | - |
| 1778008349 | 12.78° C | 46% | 1019.1 hPa | 0 mm | 0.45 m/s, 136° | 394 W/m² | - |
* Rain latest hour (hover to see other rain measurements)
** Current wind speed in m/s (hover to see current wind gust speed)